Tracking 18816 objects as of 17-October-2017
HD Live streaming from Space Station
objects crossing your sky now

TANYUSHA 2

Track TANYUSHA 2 now!
10-day predictions


NORAD ID: 42912
Int'l Code: 1998-067NB
Perigee: 399.7 km
Apogee: 407.6 km
Inclination: 51.6 °
Period: 92.5 minutes
Semi major axis: 6774 km
RCS: Unknown
Launch date: November 20, 1998
Source: Commonwealth of Independent States (former USSR) (CIS)
Launch site: TYURATAM MISSILE AND SPACE COMPLEX (TTMTR)
aabbcc
Your satellite tracking list
Your tracking list is empty





NASA's NSSDC Master Catalog

Two Line Element Set (TLE):
1 42912U 98067NB  17289.82438399  .00016015  00000-0  22429-3 0  9996
2 42912  51.6360 151.2088 0005817  40.0360 320.1060 15.56941336  9374
Source of the keplerian elements: AFSPC